FW4659 Weather Reports


time (UTC)temp
C
wind
direction
speed
KPH
gust
KPH
rain 1hr
cm
rain 24hr
cm
rain mn
cm
humidity
%
barometer
mb
20260503224025 31 263 3.2 12.9 0.00 0.00 0.00 34 1007.3
20260503223258 31 293 3.2 12.9 0.00 0.00 0.00 33 1007.4
20260503222752 31 288 3.2 12.9 0.00 0.00 0.00 36 1007.5
20260503222251 31 259 1.6 12.9 0.00 0.00 0.00 35 1007.5
20260503221754 31 277 1.6 11.3 0.00 0.00 0.00 35 1007.7
20260503221242 31 268 1.6 9.7 0.00 0.00 0.00 36 1007.7
20260503220723 31 284 1.6 12.9 0.00 0.00 0.00 37 1007.8
20260503215944 31 297 3.2 12.9 0.00 0.00 0.00 36 1007.8
20260503215446 31 262 1.6 12.9 0.00 0.00 0.00 38 1007.9
20260503214952 31 204 0.0 6.4 0.00 0.00 0.00 36 1007.9
20260503214437 31 208 0.0 8.0 0.00 0.00 0.00 40 1008.0
20260503213943 31 176 1.6 8.0 0.00 0.00 0.00 39 1008.1
20260503213440 31 59 0.0 11.3 0.00 0.00 0.00 39 1008.2
20260503212934 30 153 0.0 11.3 0.00 0.00 0.00 43 1008.3
20260503212153 30 283 1.6 11.3 0.00 0.00 0.00 43 1008.3
20260503211418 30 300 1.6 9.7 0.00 0.00 0.00 46 1008.4
20260503210910 30 260 0.0 8.0 0.00 0.00 0.00 44 1008.5
20260503210414 30 197 0.0 9.7 0.00 0.00 0.00 46 1008.5
20260503205630 30 243 0.0 9.7 0.00 0.00 0.00 44 1008.6
20260503205113 29 19 1.6 11.3 0.00 0.00 0.00 45 1008.7
20260503204323 29 10 1.6 11.3 0.00 0.00 0.00 46 1008.8
20260503203819 29 345 1.6 11.3 0.00 0.00 0.00 48 1008.9
20260503203315 29 87 0.0 4.8 0.00 0.00 0.00 44 1008.9
20260503202803 29 86 0.0 4.8 0.00 0.00 0.00 47 1008.9
20260503202314 29 87 0.0 4.8 0.00 0.00 0.00 49 1009.0
20260503201817 29 86 0.0 4.8 0.00 0.00 0.00 46 1009.1
20260503201327 30 87 0.0 6.4 0.00 0.00 0.00 46 1009.2
20260503200817 29 80 0.0 6.4 0.00 0.00 0.00 47 1009.2
20260503200310 29 81 0.0 6.4 0.00 0.00 0.00 47 1009.2
20260503195811 29 80 0.0 6.4 0.00 0.00 0.00 50 1009.3
20260503195313 28 73 0.0 6.4 0.00 0.00 0.00 49 1009.4
20260503194813 28 65 0.0 6.4 0.00 0.00 0.00 49 1009.5
20260503194318 28 44 0.0 6.4 0.00 0.00 0.00 49 1009.6
20260503193816 28 38 0.0 6.4 0.00 0.00 0.00 49 1009.5
20260503193325 28 86 0.0 6.4 0.00 0.00 0.00 51 1009.6
20260503192819 28 84 0.0 8.0 0.00 0.00 0.00 53 1009.6
20260503192309 28 86 0.0 8.0 0.00 0.00 0.00 51 1009.7
20260503191756 27 85 0.0 8.0 0.00 0.00 0.00 52 1009.8
20260503191255 27 90 0.0 8.0 0.00 0.00 0.00 51 1009.8
20260503190747 27 75 0.0 6.4 0.00 0.00 0.00 53 1009.9
20260503190014 27 75 0.0 4.8 0.00 0.00 0.00 53 1009.9
20260503185505 27 75 0.0 4.8 0.00 0.00 0.00 57 1010.0
20260503185014 27 74 0.0 3.2 0.00 0.00 0.00 54 1010.0
20260503184457 27 74 0.0 1.6 0.00 0.00 0.00 57 1010.0
20260503184003 26 74 0.0 0.0 0.00 0.00 0.00 55 1010.2
20260503183502 26 74 0.0 6.4 0.00 0.00 0.00 58 1010.2
20260503183008 26 26 0.0 3.2 0.00 0.00 0.00 58 1010.2
20260503182517 26 26 0.0 6.4 0.00 0.00 0.00 57 1010.2
20260503182020 26 26 0.0 6.4 0.00 0.00 0.00 58 1010.3
20260503181518 26 26 0.0 6.4 0.00 0.00 0.00 58 1010.2
20260503181014 25 26 0.0 6.4 0.00 0.00 0.00 59 1010.2
20260503180513 25 277 0.0 4.8 0.00 0.00 0.00 58 1010.3
20260503180016 25 277 0.0 4.8 0.00 0.00 0.00 59 1010.2
20260503175501 25 235 0.0 3.2 0.00 0.00 0.00 60 1010.3
20260503175009 25 235 0.0 3.2 0.00 0.00 0.00 61 1010.3
20260503174506 25 231 0.0 3.2 0.00 0.00 0.00 61 1010.4
20260503174002 24 231 0.0 3.2 0.00 0.00 0.00 63 1010.4
20260503173511 23 236 0.0 3.2 0.00 0.00 0.00 66 1010.5
20260503172746 23 236 0.0 11.3 0.00 0.00 0.00 67 1010.5
20260503172241 22 236 1.6 11.3 0.00 0.00 0.00 69 1010.6
20260503171736 21 236 3.2 11.3 0.00 0.00 0.00 71 1010.7
20260503171227 21 238 3.2 11.3 0.00 0.00 0.00 72 1010.5
20260503170737 20 248 3.2 6.4 0.00 0.00 0.00 73 1010.6
20260503160126 18 25 0.0 1.6 0.00 0.00 0.00 76 1010.9
20260503150338 17 25 0.0 0.0 0.00 0.00 0.00 77 1010.8
20260503131217 17 25 1.6 3.2 0.00 0.00 0.00 73 1010.3
20260503130719 17 25 1.6 3.2 0.00 0.00 0.00 75 1010.2
20260503130220 16 25 0.0 3.2 0.00 0.00 0.00 77 1010.3
20260503120157 16 25 0.0 3.2 0.00 0.00 0.00 82 1010.6
20260503110605 16 25 0.0 0.0 0.00 0.00 0.00 84 1011.0
20260503110107 16 25 0.0 0.0 0.00 0.00 0.00 84 1011.0
20260503081240 18 25 0.0 1.6 0.00 0.00 0.00 70 1011.1
20260503080728 18 25 0.0 1.6 0.00 0.00 0.00 70 1011.1
20260503080237 18 25 0.0 4.8 0.00 0.00 0.00 70 1011.1
20260503072714 17 23 0.0 8.0 0.00 0.00 0.00 73 1011.1
20260503072201 17 23 0.0 8.0 0.00 0.00 0.00 73 1011.2
20260503071703 17 24 0.0 6.4 0.00 0.00 0.00 73 1011.1
20260503071155 17 24 0.0 1.6 0.00 0.00 0.00 73 1011.2
20260503070637 17 24 0.0 0.0 0.00 0.00 0.00 73 1011.4
20260503070144 17 24 0.0 0.0 0.00 0.00 0.00 73 1011.5
20260503054631 18 24 0.0 0.0 0.00 0.00 0.00 75 1011.9
20260503054131 18 24 0.0 0.0 0.00 0.00 0.00 71 1012.0
20260503053635 18 24 0.0 0.0 0.00 0.00 0.00 71 1012.0
20260503053141 18 24 0.0 0.0 0.00 0.00 0.00 72 1012.0
20260503052640 18 24 0.0 0.0 0.00 0.00 0.00 73 1012.1
20260503052141 18 24 0.0 0.0 0.00 0.00 0.00 72 1012.0
20260503051638 18 24 0.0 4.8 0.00 0.00 0.00 71 1012.1
20260503051125 18 24 0.0 3.2 0.00 0.00 0.00 72 1012.0
20260503050617 18 24 0.0 0.0 0.00 0.00 0.00 71 1012.0
20260503050111 18 24 0.0 0.0 0.00 0.00 0.00 71 1011.9
20260503045552 18 24 0.0 0.0 0.00 0.00 0.00 71 1011.9
20260503045034 18 24 0.0 0.0 0.00 0.00 0.00 70 1011.9
20260503044527 18 24 0.0 0.0 0.00 0.00 0.00 71 1011.8
20260503043800 18 24 0.0 0.0 0.00 0.00 0.00 71 1011.7
20260503043032 18 24 1.6 4.8 0.00 0.00 0.00 71 1011.8
20260503042539 18 24 0.0 4.8 0.00 0.00 0.00 71 1011.7
20260503042032 18 24 0.0 0.0 0.00 0.00 0.00 71 1011.7
20260503041527 18 24 1.6 4.8 0.00 0.00 0.00 72 1011.6
20260503041030 19 24 1.6 4.8 0.00 0.00 0.00 70 1011.4
20260503040512 19 24 1.6 4.8 0.00 0.00 0.00 70 1011.4
20260503040017 19 24 1.6 3.2 0.00 0.00 0.00 71 1011.5
20260503035517 20 24 0.0 3.2 0.00 0.00 0.00 70 1011.4
20260503034959 20 24 1.6 1.6 0.00 0.00 0.00 69 1011.3
20260503034451 20 24 1.6 4.8 0.00 0.00 0.00 69 1011.2
20260503033937 20 24 0.0 3.2 0.00 0.00 0.00 68 1011.1
20260503033419 21 24 0.0 3.2 0.00 0.00 0.00 67 1011.1
20260503032922 21 24 0.0 4.8 0.00 0.00 0.00 65 1011.1
20260503032403 21 24 0.0 4.8 0.00 0.00 0.00 64 1010.9
20260503031906 21 23 0.0 4.8 0.00 0.00 0.00 60 1010.7
20260503031349 22 23 0.0 3.2 0.00 0.00 0.00 60 1010.4
20260503030857 22 23 0.0 3.2 0.00 0.00 0.00 59 1010.2
20260503030342 22 18 0.0 6.4 0.00 0.00 0.00 60 1010.0
20260503025620 22 19 0.0 6.4 0.00 0.00 0.00 60 1010.0
20260503025102 22 34 0.0 6.4 0.00 0.00 0.00 60 1009.9
20260503024601 22 297 0.0 0.0 0.00 0.00 0.00 59 1009.9
20260503024055 22 296 0.0 3.2 0.00 0.00 0.00 60 1009.8
20260503023604 22 296 0.0 3.2 0.00 0.00 0.00 59 1009.8
20260503023106 22 295 0.0 3.2 0.00 0.00 0.00 60 1009.8
20260503022607 23 294 0.0 4.8 0.00 0.00 0.00 59 1009.9
20260503022100 23 294 0.0 4.8 0.00 0.00 0.00 58 1009.8
20260503021548 23 9 0.0 1.6 0.00 0.00 0.00 57 1009.8
20260503021050 23 9 0.0 6.4 0.00 0.00 0.00 57 1009.8
20260503020555 23 13 0.0 6.4 0.00 0.00 0.00 57 1009.9
20260503020040 24 11 0.0 4.8 0.00 0.00 0.00 57 1009.9
20260503015536 24 12 0.0 1.6 0.00 0.00 0.00 57 1009.9
20260503015033 24 12 0.0 11.3 0.00 0.00 0.00 57 1009.9
20260503014519 24 146 0.0 8.0 0.00 0.00 0.00 57 1010.0
20260503013740 25 84 0.0 6.4 0.00 0.00 0.00 57 1009.9
20260503013230 25 86 0.0 6.4 0.00 0.00 0.00 57 1010.0
20260503012727 25 28 0.0 12.9 0.00 0.00 0.00 58 1010.0
20260503011939 25 28 0.0 4.8 0.00 0.00 0.00 56 1009.9
20260503011446 25 23 0.0 4.8 0.00 0.00 0.00 56 1010.0
20260503010932 25 23 1.6 12.9 0.00 0.00 0.00 56 1010.0
20260503010418 25 15 1.6 12.9 0.00 0.00 0.00 57 1010.0
20260503005909 25 0 0.0 8.0 0.00 0.00 0.00 56 1010.1
20260503005418 25 78 0.0 3.2 0.00 0.00 0.00 56 1010.0
20260503004925 25 78 0.0 0.0 0.00 0.00 0.00 56 1010.1
20260503004432 25 79 1.6 9.7 0.00 0.00 0.00 56 1010.1
20260503003919 25 150 0.0 9.7 0.00 0.00 0.00 55 1010.1
20260503003410 25 34 0.0 9.7 0.00 0.00 0.00 56 1010.1
20260503002625 25 28 1.6 8.0 0.00 0.00 0.00 58 1010.2
20260503002117 25 5 1.6 8.0 0.00 0.00 0.00 55 1010.1
20260503001342 25 30 1.6 8.0 0.00 0.00 0.00 56 1010.2
20260503000824 25 86 1.6 8.0 0.00 0.00 0.00 55 1010.2
20260503000319 26 90 0.0 8.0 0.00 0.00 0.00 56 1010.2
20260502235820 26 86 0.0 4.8 0.00 0.00 0.00 58 1010.2
20260502235321 25 82 0.0 9.7 0.00 0.00 0.00 58 1010.3
20260502234810 25 82 1.6 9.7 0.00 0.00 0.00 57 1010.4
20260502234309 25 80 1.6 9.7 0.00 0.00 0.00 56 1010.4
20260502233748 25 57 0.0 9.7 0.00 0.00 0.00 57 1010.5
20260502233027 25 56 1.6 9.7 0.00 0.00 0.00 59 1010.6
20260502232522 25 55 1.6 9.7 0.00 0.00 0.00 57 1010.7
20260502232020 25 286 0.0 6.4 0.00 0.00 0.00 61 1010.8
20260502231504 25 292 0.0 6.4 0.00 0.00 0.00 60 1010.9
20260502231011 25 177 1.6 6.4 0.00 0.00 0.00 59 1011.0
20260502230517 25 218 1.6 14.5 0.00 0.00 0.00 61 1011.0
20260502230025 24 221 1.6 14.5 0.00 0.00 0.00 61 1011.1
20260502225506 24 99 3.2 14.5 0.00 0.00 0.00 59 1011.2
20260502224948 24 99 1.6 14.5 0.00 0.00 0.00 58 1011.3
20260502224448 24 30 1.6 12.9 0.00 0.00 0.00 58 1011.4